Lukas Holes

Olheiro-Chefe - Mlada Boleslav
13 Jan 2028
Quinta-feira
Processo

Personalidade

Adaptabilidade (13) Ambição (12) Controvérsia (14) Lealdade (10) Pressão (3) Profissionalismo (1) Espírito Esportivo (11) Temperamento (12)

Perfil

Estilo de Treinamento Democrático
Licença Continental B
Determinação 11
Gestão de Pessoas 6
Motivação 7
Disciplina 9
Satisfação no Trabalho
100%
Fadiga
0%
Função Olheiro-Chefe
Salário 12.7K p/s
Contrato 14.03.2029

Desempenho

Comportamento Bom
Eficácia do Treinamento
29%
Desenvolvimento do Jogador
50%
Prevenção de Lesões
30%
Implementação Tática
35%

Eventos Recentes

Participou de uma reunião de recrutamento agora
Participou de uma reunião de recrutamento agora
Recomendou um alvo de transferência agora
Recomendou um alvo de transferência agora
Recomendou um alvo de transferência agora
Recomendou um alvo de transferência agora
Recomendou um alvo de transferência 7d atrás
Recomendou um alvo de transferência 7d atrás

Monitorando agora

127
Jogador Clube Status Habilidade Confiança Observado Última observação Último voto
Moses Amasi Sigma Olomouc Ativo 90 / 89 62% 1 14.06.2027 Aprovar
Bradley Phiri Lillestrom Negociando 112 / 112 66% 1 01.06.2027 Aprovar
Razvan Mitrita San Diego Football Club Negociando 118 / 120 66% 1 01.06.2027 Aprovar
Goga Kobiashvili Veres Negociando 92 / 92 66% 1 01.06.2027 Aprovar
Shota Shekiladze Akhmat Grozny Negociando 110 / 110 66% 1 01.06.2027 Aprovar
Pedro de la Vega FC Dallas Negociando 133 / 134 66% 1 01.06.2027 Aprovar
Jack Currie Oxford United Ativo 132 / 127 40% 5 30.05.2027 -
Stanley Mills Oxford United Ativo 133 / 134 40% 4 30.05.2027 -
Kasey McAteer Ipswich Town Ativo 128 / 146 40% 6 27.05.2027 -
Isaac Price West Bromwich Albion Ativo 137 / 114 40% 3 27.05.2027 -
Kwadwo Baah Watford Ativo 129 / 121 40% 4 26.05.2027 -
Alex Lowry Wycombe Wanderers Ativo 108 / 137 40% 1 26.05.2027 -
Max Bird Birmingham Ativo 136 / 150 40% 4 25.05.2027 -
Othmane Maamma Watford Ativo 135 / 110 40% 4 23.05.2027 -
David Turnbull Cardiff City Ativo 129 / 112 40% 4 23.05.2027 -
Welington Southampton Ativo 126 / 132 40% 3 22.05.2027 -
Sonny Carey Charlton Athletic Ativo 111 / 125 40% 1 22.05.2027 -
Daniel Kyerewaa Reading Ativo 115 / 99 40% 4 21.05.2027 -
Tshepang Moremi Orlando Pirates Ativo 120 / 128 40% 2 21.05.2027 Mais informações
Ali Ahmed Norwich City Ativo 138 / 121 40% 5 20.05.2027 -
Ethan Williams Peterborough United Ativo 103 / 101 40% 5 18.05.2027 -
Williams Manyama SuperSport United Ativo 107 / 106 40% 5 17.05.2027 -
Harry Clarke Preston Ativo 130 / 112 40% 4 17.05.2027 -
Ethan Galbraith Swansea City Ativo 129 / 138 40% 5 16.05.2027 -
Xavier Amaechi Plymouth Argyle Ativo 106 / 90 40% 2 15.05.2027 -
Ronald Swansea City Ativo 118 / 120 40% 1 15.05.2027 -
Ollie Tanner Cardiff City Ativo 111 / 120 40% 4 11.05.2027 -
Louie Barry Sheffield Wednesday Ativo 117 / 123 40% 3 11.05.2027 -
Isaiah Jones Luton Town Ativo 133 / 107 40% 6 09.05.2027 -
Kwame Poku Queens Park Rangers Ativo 109 / 120 40% 4 08.05.2027 -
Tyrese Campbell Sheffield United Ativo 142 / 134 40% 3 02.05.2027 -
Toby Collyer West Bromwich Albion Ativo 136 / 136 40% 1 02.05.2027 -
Derensili Sanches Fernandes Huddersfield Town Ativo 140 / 105 40% 2 29.04.2027 -
Giorgi Chakvetadze Watford Ativo 127 / 115 40% 1 29.04.2027 -
Richard Koné Queens Park Rangers Ativo 112 / 137 40% 4 28.04.2027 -
Jack Diamond Stockport County Ativo 125 / 131 40% 3 26.04.2027 -
Andre Brooks Sheffield United Ativo 141 / 108 40% 4 24.04.2027 -
Mduduzi Shabalala Kaizer Chiefs Ativo 116 / 95 40% 5 22.04.2027 -
Scott Twine Bristol City Ativo 141 / 114 40% 2 14.04.2027 -
Cian Ashford Cardiff City Ativo 107 / 121 40% 4 13.04.2027 -
Joe Gelhardt Hull City Ativo 130 / 144 40% 2 13.04.2027 -
Milan van Ewijk Mansfield Town Ativo 140 / 145 40% 1 12.04.2027 -
Lukáš Červ Viktoria Plzen Ativo 134 / 135 40% 2 11.04.2027 -
Harrison Burrows Sheffield United Ativo 129 / 129 40% 1 11.04.2027 -
Josh Tymon Swansea City Ativo 119 / 116 40% 1 11.04.2027 -
Kristoffer Lund Birmingham Ativo 114 / 109 40% 1 09.04.2027 -
Zak Swanson Bradford City Ativo 119 / 133 40% 2 08.04.2027 -
Juan Mosquera Sheffield Wednesday Ativo 139 / 117 40% 1 08.04.2027 -
Petr Juliš Slovan Liberec Ativo 119 / 121 40% 2 03.04.2027 -
Florentino Luís Ipswich Town Ativo 138 / 126 40% 3 03.04.2027 -
Mikey Johnston West Bromwich Albion Ativo 113 / 110 40% 1 01.04.2027 -
Phoenix Patterson Stevenage Ativo 113 / 112 40% 1 01.04.2027 -
Mohamed-Ali Cho Hull City Ativo 138 / 122 40% 5 27.03.2027 -
Zeidane Inoussa Swansea City Ativo 113 / 127 40% 1 27.03.2027 -
Tyler Goodrham Oxford United Ativo 121 / 131 40% 1 25.03.2027 -
Tomáš Rigo Stoke City Ativo 134 / 139 40% 1 21.03.2027 -
James Morris Leyton Orient Ativo 99 / 113 40% 2 16.03.2027 -
Bienvenue Kanakimana Zbrojovka Brno Ativo 118 / 112 40% 3 14.03.2027 -
Jack McGlynn Stoke City Ativo 128 / 116 40% 1 13.03.2027 -
Kellen Fisher Norwich City Ativo 118 / 132 40% 1 09.03.2027 -
Pelle Mattsson Norwich City Ativo 138 / 117 40% 1 06.03.2027 -
Callum Doyle Wrexham Ativo 128 / 141 40% 1 06.03.2027 -
Oswin Appollis Orlando Pirates Ativo 116 / 111 40% 1 19.02.2027 -
Matyáš Kozák Teplice Ativo 102 / 96 40% 6 16.02.2027 -
Finn Azaz Southampton Ativo 130 / 112 40% 1 16.02.2027 -
Romano Schmid Frosinone Ativo 145 / 158 40% 1 14.02.2027 -
Mathias Jørgensen Blackburn Rovers Ativo 134 / 101 40% 3 12.02.2027 -
Ilyas Ansah Hull City Ativo 146 / 143 40% 1 09.02.2027 -
José Martínes CSKA 1948 Ativo 100 / 114 40% 4 07.02.2027 -
Shea Charles Southampton Ativo 119 / 150 40% 1 06.02.2027 -
Petar Stanić Ludogorets Ativo 136 / 134 40% 1 06.02.2027 -
Patrik Wålemark Lech Ativo 125 / 129 40% 1 02.02.2027 -
Themba Ngcobo SuperSport United Negociando 116 / 116 66% 1 01.01.2027 Aprovar
Iwan Morgan Grimsby Town Ativo 110 / 129 40% 1 31.12.2026 -
Ammar Ramadan DAC Dunajska Streda Ativo 124 / 125 40% 4 30.12.2026 -
Ebrima Singhateh Jablonec Ativo 121 / 118 40% 2 25.12.2026 -
Mojmír Chytil NK Maribor Ativo 142 / 141 40% 3 24.12.2026 -
Lorent Tolaj Plymouth Argyle Ativo 121 / 139 40% 1 23.12.2026 -
Tomáš Zlatohlávek Teplice Ativo 100 / 99 40% 1 23.12.2026 -
Aune Heggebø West Bromwich Albion Ativo 130 / 112 40% 1 22.12.2026 -
Yousef Salech Cardiff City Ativo 128 / 147 40% 1 22.12.2026 -
Eren Aydın Zira Ativo 121 / 120 40% 1 21.12.2026 -
Martin Sekulić Ural Ativo 117 / 100 40% 1 20.12.2026 -
Lukáš Mašek Slovan Liberec Ativo 112 / 125 40% 2 19.12.2026 -
Tomás González Piast Ativo 124 / 128 40% 3 17.12.2026 -
Suleiman Camara Slovan Bratislava Ativo 127 / 105 40% 1 17.12.2026 -
Pablo Rodríguez Lech Ativo 122 / 117 40% 2 16.12.2026 -
Jacques Siwe Rubin Ativo 108 / 116 40% 1 14.12.2026 -
Václav Drchal Bohemians 1905 Ativo 99 / 93 40% 2 13.12.2026 -
Nicolás Cordero Aldosivi Ativo 127 / 121 40% 1 11.12.2026 -
Karel Spáčil Viktoria Plzen Ativo 133 / 117 40% 1 10.12.2026 -
Wessam Abou Ali Columbus Crew Ativo 129 / 129 40% 3 07.12.2026 -
Rashid Rashid Sparta Prague Ativo 127 / 145 40% 2 07.12.2026 -
Alan Lescano Argentinos Juniors Ativo 125 / 117 40% 1 07.12.2026 -
Albert Rusnak FK Senica Ativo 85 / 98 40% 1 04.12.2026 -
Rafael Navarro St. Louis CITY SC Ativo 133 / 145 40% 2 03.12.2026 -
Brayan León Mamelodi Sundowns Ativo 112 / 131 40% 1 03.12.2026 -
Ruben van Bommel Ferencvaros Ativo 131 / 141 40% 1 29.11.2026 -
Vyacheslav Grulev Nizhniy Novgorod Ativo 120 / 116 40% 1 27.11.2026 -
Etiosa Ighodaro Kaizer Chiefs Ativo 121 / 131 40% 3 26.11.2026 -
Seedy Jatta Sturm Graz Ativo 134 / 142 40% 1 26.11.2026 -
Tenton Yenne Baltika Ativo 99 / 95 40% 1 22.11.2026 -
Matěj Mikulenka Sigma Olomouc Ativo 111 / 128 40% 2 21.11.2026 -
Alexander Díaz Deportivo Riestra Ativo 133 / 97 40% 1 21.11.2026 -
Merchas Doski Viktoria Plzen Ativo 134 / 123 40% 1 21.11.2026 -
Enzo Avaro Odd Ativo 118 / 100 40% 2 19.11.2026 -
Michal Černák Dukla Prague Ativo 105 / 108 30% 1 / 1m 18.11.2026 -
Baboucarr Faal Viktoria Plzen Ativo 93 / 119 40% 1 13.11.2026 -
Agustín Módica Gimnasia y Esgrima Ativo 120 / 140 40% 1 13.11.2026 -
Kwame Opoku Asante Kotoko Ativo 84 / 98 40% 1 11.11.2026 -
Mandla Erasmus SuperSport United Ativo 123 / 139 40% 1 08.11.2026 -
Kévin Denkey FC Cincinnati Ativo 111 / 135 40% 1 05.11.2026 -
Kelvin Yeboah Minnesota United FC Ativo 131 / 128 40% 2 02.11.2026 -
Everton Bala Levski Ativo 119 / 111 40% 1 02.11.2026 -
Elias Achouri San Diego Football Club Ativo 119 / 118 40% 1 02.11.2026 -
Cheikh Sabaly Vancouver Whitecaps Ativo 119 / 130 40% 2 30.10.2026 -
Dejan Joveljić Seattle Sounders Ativo 133 / 135 40% 1 29.10.2026 -
Jeong Sang-Bin St. Louis CITY SC Ativo 99 / 101 40% 1 27.10.2026 -
Peter Christiansen Viking Ativo 115 / 123 40% 2 26.10.2026 -
Raimonds Krollis Slovan Liberec Ativo 103 / 123 40% 1 26.10.2026 -
Agustín Anello Philadelphia Union Ativo 109 / 112 40% 1 24.10.2026 -
Louis Munteanu DC United Ativo 117 / 135 40% 1 17.10.2026 -
Denzel Jubitana Neftchi Ativo 110 / 138 40% 1 15.10.2026 -
Ibrahim Aliyu Houston Dynamo Ativo 101 / 139 40% 2 10.10.2026 -
Jakub Kadák Dukla Prague Ativo 106 / 107 40% 1 07.10.2026 -
Josh Sargent Toronto FC Ativo 119 / 113 40% 1 06.10.2026 -
Tomás Chancalay Minnesota United FC Ativo 118 / 107 40% 1 05.10.2026 -